User: anonymous   Login
Location: B?jaj?g
(11.7167°N, 92.6667°E)
Time: 13:06:04
(UTC+00:00)
Language:

Cosmos 1937 Rocket - Orbit

View from above orbital plane
View from above orbital plane
View from above satellite
View from above satellite

Ground track
Ground track

The orbit data is extracted from the following two-line orbital elements,

1 19039U 88029B   20330.93718987 -.00000050 +00000-0 -76176-5 0  9998
2 19039 074.0450 143.0767 0023718 001.6297 358.4930 14.38490255711415
Epoch (UTC): 25 November 2020 22:29:33
Eccentricity: 0.0023718
inclination: 74.0450°
perigee height: 746 km
apogee height: 780 km
right ascension of ascending node: 143.0767°
argument of perigee: 1.6297°
revolutions per day: 14.38490255
mean anomaly at epoch: 358.4930°
orbit number at epoch: 71141

The dashed part of the orbit path shows where the satellite is in the earth's shadow,  

DLR